Location: Allonne
(49.4086°N, 2.1143°E)
Time: 15:30:30
(UTC+00:00)

Daily predictions for brighter satellites

Satellite Brightness Start Highest point End
(mag) Time Altitude Azimuth Time Altitude Azimuth Time Altitude Azimuth
IRS-1A Rocket 4.4 20:23:46 10° SSE 20:29:24 73° ENE 20:35:11 10° NNW
Okean-O 2.9 20:25:19 10° S 20:29:42 70° WSW 20:34:07 10° NNW
ARGOS Delta rocket 4.4 20:25:47 10° S 20:30:24 60° W 20:35:20 10° NNW
Gbstr 26 Del rocket 3.2 20:27:49 10° WSW 20:32:06 86° SSE 20:37:21 10° ENE
Timation 2 Rocket 4.4 20:26:37 10° S 20:32:30 42° ESE 20:38:12 10° NE
CZ-4C R/B 3.3 20:29:37 10° NNE 20:33:16 52° E 20:36:45 10° S
Cosmos 1125 Rocket 4.4 20:30:14 10° SSE 20:34:47 30° E 20:39:21 10° NE
USA 276 1.9 20:36:29 10° W 20:39:24 75° SSW 20:42:25 10° ESE
Cosmos 2084 3.6 20:38:51 10° SSW 20:42:47 43° SE 20:46:35 10° NE
SPOT 3 Rocket 3.9 20:39:02 10° SE 20:44:04 52° ENE 20:49:08 10° N
NOSS 2-2 (E) 3.0 20:47:12 10° SSW 20:50:21 45° SE 20:53:23 10° NE
NOSS 2-2 (C) 2.6 20:47:30 10° SW 20:50:41 74° SE 20:53:49 10° NE
In-Cosmos 22 Rocket 4.3 20:47:14 10° S 20:52:52 61° E 20:58:23 10° NNE
Landsat 4 4.4 20:49:58 11° SE 20:52:58 34° ENE 20:56:06 10° N
Nadezhda 3 Rocket 4.0 20:46:55 10° N 20:53:07 85° E 20:59:16 10° S
BREEZE-M DEB (TANK) 3.3 20:51:21 10° W 20:54:05 65° SSW 21:01:15 10° ESE
Cosmos 1544 Rocket 4.4 20:50:21 10° N 20:54:22 36° ENE 20:58:03 12° SE
NOSS 2-3 (E) 3.3 20:52:58 10° SSW 20:56:31 54° SE 21:00:29 10° NE
Cosmos 1844 4.1 20:51:29 10° SW 20:57:16 74° WNW 21:03:04 10° NNE
Terra 1.8 20:53:11 10° SSE 20:57:54 88° ENE 21:02:40 10° NNW
Meteor 1-21 Rocket 4.3 20:58:47 10° SSW 21:04:20 80° WNW 21:09:54 10° N
USA 305 4.0 21:01:29 10° WNW 21:05:05 37° N 21:08:21 10° ENE
GP-B 4.4 21:02:49 10° NNW 21:06:57 41° W 21:11:05 10° SSW
ATLAS CENTAUR R/B 1.6 21:03:23 10° NW 21:07:18 59° SW 21:10:52 13° SSE
Cosmos 1437 Rocket 3.8 21:07:19 14° SE 21:09:36 25° E 21:12:37 10° NE
Meteor 2-1 Rocket 4.2 21:07:53 10° NNW 21:13:34 90° ESE 21:18:58 11° S
Cosmos 1833 Rocket 2.9 21:07:56 10° NNW 21:13:34 63° ENE 21:18:22 14° SE
NOSS 2-3 (C) 3.1 21:10:38 10° SW 21:14:15 78° SE 21:18:21 10° NE
Cosmos 1455 Rocket 3.6 21:10:34 10° NNW 21:14:53 56° W 21:19:09 10° S
Cosmos 1975 Rocket 3.1 21:14:18 10° S 21:18:46 85° W 21:23:15 10° N
Cosmos 1025 Rocket 4.2 21:15:15 10° SSW 21:19:17 42° WNW 21:23:21 10° N
Cosmos 44 3.9 21:14:45 10° S 21:19:37 39° ESE 21:24:19 10° NE
Orbus 7S? 4.0 21:17:17 10° WNW 21:19:40 26° SW 21:21:20 15° S
Lacrosse 5 2.4 21:16:42 10° WSW 21:21:43 62° NNW 21:26:45 10° NE
ERS-1 Rocket 3.7 21:18:52 10° S 21:23:42 49° W 21:28:35 10° NNW
Spot 2 Rocket 3.8 21:19:36 10° S 21:24:40 65° WSW 21:29:46 10° NNW
Cosmos 220 Rocket 3.9 21:20:53 10° NNW 21:25:02 84° ENE 21:28:09 17° SSE
Cosmos 2082 Rocket 3.6 21:21:39 10° NNW 21:26:33 29° NE 21:31:25 10° ESE
NOSS 2-2 (D) 2.9 21:24:55 10° SW 21:28:08 72° NW 21:31:18 10° NE
ATLAS 5 CENTAUR R/B 3.3 21:25:18 10° W 21:28:20 29° NNW 21:31:45 10° NNE
USA 307 3.9 21:24:36 10° W 21:28:21 42° N 21:31:56 10° ENE
Cosmos 2218 Rocket 4.3 21:23:42 13° SSE 21:28:50 48° E 21:34:43 10° NNE
Landsat 5 3.9 21:26:41 10° NNE 21:30:56 47° E 21:34:10 16° S
Cosmos 1844 Rocket 4.2 21:28:20 10° WSW 21:33:30 38° NW 21:38:43 10° NNE
Cosmos 2278 Rocket 3.2 21:31:13 16° SSE 21:34:29 28° ESE 21:39:13 10° NE
Cosmos 1606 2.9 21:31:46 10° NNW 21:35:17 59° W 21:38:05 15° S
MetOp-A 3.7 21:35:02 18° SSE 21:38:25 70° ENE 21:42:43 10° N
Cosmos 2298 Rocket 4.2 21:33:34 10° S 21:38:44 56° ESE 21:43:57 10° NNE
Cosmos 2341 Rocket 4.0 21:33:38 11° S 21:39:45 73° E 21:46:05 10° NNE
ULPM Upper Stage 4.5 21:36:10 10° NNW 21:40:00 29° NNE 21:43:49 10° E
Cosmos 614 Rocket 4.0 21:35:59 10° NNW 21:41:04 68° ENE 21:44:35 20° SE
Meteor 1-11 4.5 21:37:16 10° SSW 21:42:59 72° WNW 21:48:41 10° N
H-2A R/B 4.4 21:44:33 11° E 21:46:54 17° ENE 21:49:22 10° NNE
Cosmos 1869 4.0 21:43:26 10° NNW 21:47:07 48° W 21:50:08 14° SSW
CZ-4C R/B 4.0 21:43:54 10° NW 21:49:52 36° NNE 21:57:09 10° E
Cosmos 1536 Rocket 3.7 21:47:10 20° SSE 21:49:58 57° E 21:54:13 10° NNE
Ariane Rocket 4.0 21:47:25 10° SSW 21:52:09 41° W 21:56:57 10° NNW
ISS -3.1 21:49:54 10° WNW 21:53:11 56° N 21:56:28 10° E
COSMOS 2406 4.3 21:51:03 10° NNW 21:56:18 37° NE 22:00:48 13° ESE
USA 290 3.7 21:58:15 21° ESE 21:58:15 21° ESE 22:00:40 10° NE
ARIANE 5 R/B 3.1 21:58:54 23° SE 22:01:26 48° ENE 22:05:44 10° N
GENESIS II 4.3 21:58:32 10° NW 22:02:02 53° SW 22:03:31 29° S
Cosmos 1269 Rocket 4.5 21:58:31 10° NNW 22:03:44 53° ENE 22:07:06 21° SE
BREEZE-M DEB (TANK) 3.7 21:53:38 10° WNW 22:04:05 43° SW 22:06:11 24° SSE
Cosmos 1727 Rocket 4.2 21:58:21 10° N 22:04:40 62° ENE 22:08:48 22° SSE
ATLAS 3B R/B 3.7 22:01:26 20° SSE 22:04:47 29° ESE 22:11:01 10° NE
Cosmos 2228 3.4 22:01:16 10° NNW 22:05:24 57° W 22:08:06 20° SSW
Geosat 4.3 22:04:56 10° NNE 22:09:56 68° NW 22:14:54 10° SW
Cosmos 1943 Rocket 3.0 22:08:20 23° SSE 22:10:50 34° ESE 22:15:50 10° NE
USA 276 3.6 22:10:57 10° W 22:13:09 21° SW 22:13:09 21° SW
Cosmos 1821 Rocket 4.1 22:09:49 21° SSE 22:14:03 63° E 22:20:21 10° NNE
USA 281 4.5 22:10:10 10° ESE 22:15:53 33° NE 22:21:37 10° NNW
Gbstr 26 Del rocket 3.8 22:14:18 10° W 22:19:01 68° N 22:24:54 10° E
Cosmos 2058 4.3 22:19:03 22° ESE 22:20:09 24° E 22:23:30 10° NE
Cosmos 2150 Rocket 4.3 22:15:01 10° SSW 22:20:25 73° WNW 22:25:54 10° NNE
ALOS 2 3.9 22:19:19 19° ESE 22:21:37 30° ENE 22:25:27 10° N
Cosmos 2084 Rocket 3.4 22:21:28 10° NW 22:25:27 67° NE 22:27:21 28° ESE
Spot 4 4.5 22:23:23 24° SE 22:25:59 47° ENE 22:30:38 10° N
NOSS 3-1 (C) 3.0 22:24:27 12° SSW 22:29:02 72° SE 22:34:58 10° NE
Cosmos 1544 4.5 22:30:25 13° ENE 22:30:25 13° ENE 22:30:58 10° NE
SeaSat 1 3.0 22:26:56 21° ESE 22:30:01 53° NE 22:34:49 10° NNW
Cosmos 1812 2.6 22:31:58 10° N 22:35:30 61° E 22:36:28 41° SE
Terra 4.3 22:34:04 10° WSW 22:36:11 13° W 22:38:17 10° WNW
Cosmos 2366 rocket 4.5 22:30:38 12° SSW 22:36:20 57° WNW 22:42:23 10° N
USA 305 3.6 22:34:23 10° WNW 22:37:49 39° N 22:40:34 11° E
Cosmos 1238 Rocket 3.9 22:38:00 10° NNE 22:41:00 28° ENE 22:42:01 25° ESE
Aureole 2 4.1 22:41:11 50° SSW 22:41:54 87° ESE 22:45:18 10° NNE
BREEZE-M R/B 3.8 22:37:53 10° WSW 22:42:14 75° SSE 22:56:53 10° ENE
PSLV R/B 3.8 22:39:30 10° NNE 22:43:29 67° ESE 22:44:50 39° S
Cosmos 1892 Rocket 3.6 22:45:05 35° SSE 22:46:49 66° E 22:51:15 10° NNE
Cosmos 1140 Rocket 3.7 22:47:07 10° NNW 22:52:13 62° ENE 22:54:48 28° SE
Cosmos 1833 Rocket 4.2 22:52:34 10° NW 22:57:02 25° WSW 23:00:03 16° SW
MINOTAUR 4 R/B 3.4 22:54:15 10° NNE 22:57:02 68° E 22:57:02 68° E
Cosmos 2239 Rocket 4.4 22:55:30 26° S 22:59:12 90° WNW 23:05:29 10° N
SL-08 R/B 4.4 22:57:34 26° S 23:01:11 88° W 23:07:21 10° N
BREEZE-M DEB (TANK) 3.5 22:58:31 10° W 23:01:24 75° SSW 23:09:08 10° ESE
USA 307 3.5 22:58:21 10° WNW 23:02:04 46° NNE 23:05:28 10° E
Cosmos-2242 3.9 23:00:25 10° N 23:04:23 38° ENE 23:05:51 28° ESE
Cosmos 2123 Rocket 4.0 22:58:12 10° N 23:04:32 81° E 23:07:51 30° SSE
Cosmos 1606 Rocket 4.5 23:01:11 10° NNW 23:05:13 39° W 23:07:01 26° SW
CENTAUR R/B 4.4 22:58:15 10° NW 23:05:20 39° NNE 23:13:32 10° E
Lacrosse 5 3.6 23:00:46 10° WNW 23:05:25 35° N 23:10:05 10° ENE
NOSS 3-1 (A) 3.0 23:03:57 29° SSW 23:06:28 65° SE 23:12:22 10° NE
Cosmos 1726 Rocket 4.1 23:03:17 10° NNW 23:07:28 49° W 23:09:05 32° SSW
NOSS 8 (F) 4.2 23:05:28 10° NW 23:08:32 81° SW 23:09:06 59° SSE
Cosmos 2082 Rocket 2.3 23:05:29 10° NW 23:11:02 61° WSW 23:13:28 33° S
Cosmos 1515 4.2 23:11:00 10° N 23:14:19 41° ENE 23:14:57 37° ESE
Cosmos 2278 Rocket 2.8 23:12:59 12° SW 23:18:13 56° WNW 23:23:49 10° NNE
ULPM Upper Stage 2.7 23:15:26 10° NW 23:19:47 69° SW 23:20:59 45° SSE
Cosmos 2369 Rocket 3.4 23:19:37 22° SE 23:21:03 25° ESE 23:25:30 10° NE
PSLV R/B 4.1 23:17:01 10° NNE 23:21:13 46° E 23:22:20 37° SE
H-2A R/B 2.6 23:20:31 41° SSW 23:21:28 53° WSW 23:25:14 10° NNW
Cosmos 489 Rocket 4.4 23:24:24 31° S 23:27:29 72° ESE 23:33:42 10° NNE
ISS -4.0 23:26:44 10° WNW 23:30:04 80° SSW 23:30:09 79° S
USA 290 4.1 23:30:56 18° WSW 23:32:28 27° WNW 23:35:15 10° N
Cosmos 2058 Rocket 3.5 23:29:04 10° NNW 23:33:17 50° W 23:34:37 36° SW
Cosmos 1782 2.6 23:30:01 10° N 23:33:50 81° E 23:34:35 55° SSE
USA 229 DEB 4.1 23:32:18 31° SSE 23:34:20 40° ESE 23:40:29 10° NE
USA 229 4.1 23:32:27 31° SSE 23:34:28 39° ESE 23:40:36 10° NE
CRYOSAT 2 4.3 23:31:12 10° N 23:36:06 90° W 23:37:58 39° S
Cosmos 1862 4.1 23:35:38 33° ESE 23:36:14 35° E 23:39:45 10° NNE
Cosmos 1378 2.8 23:34:41 10° N 23:37:54 62° ENE 23:38:06 60° ESE
ARIANE 5 R/B 4.4 23:36:22 17° WSW 23:38:04 21° W 23:41:30 10° NW
Cosmos 482 Debris 4.3 23:33:55 10° W 23:38:30 72° NNW 23:41:49 10° ENE
CZ-4C R/B 3.0 23:32:06 10° NW 23:39:09 90° SSW 23:45:35 19° SE
COSMOS 2455 4.1 23:34:16 10° NNW 23:39:56 39° NE 23:45:33 10° ESE
Meteor 2-2 Rocket 4.2 23:34:57 10° N 23:40:43 84° E 23:43:24 34° SSE
COSMOS 2406 3.7 23:35:20 10° NW 23:40:44 46° WSW 23:42:50 32° SSW
Cosmos 1934 Rocket 4.1 23:39:12 28° SSW 23:42:41 70° W 23:48:54 10° N
Cosmos 2221 3.9 23:41:15 10° N 23:45:01 30° ENE 23:46:52 21° ESE
Cosmos 2285 Rocket 4.1 23:45:20 10° NNW 23:51:48 75° ENE 23:55:34 26° SSE
Cosmos 1943 Rocket 3.0 23:49:48 14° SW 23:54:24 48° NW 23:59:52 10° NNE
